Martinsburg, WV

4:55 PM EST on December 07, 2019 (GMT -0500)
Eastern W Va Regional-Shepherd

Weather History for KMRB - October, 2019

Change the Weather History Date:

Wednesday, October 23, 2019

  Actual Average Record
Temperature  
Mean Temperature 52 °F 52 °F  
Max Temperature 64 °F 63 °F 88 °F (1947)
Min Temperature 39 °F 40 °F 23 °F (1969)
Degree Days  
Heating Degree Days 14 14  
Month to date heating degree days 192 236  
Since 1 July heating degree days 204 327  
Cooling Degree Days 0 0  
Month to date cooling degree days 37 8  
Year to date cooling degree days 1280 893  
Growing Degree Days 2 (Base 50)    
Moisture  
Dew Point 40 °F    
Average Humidity 75    
Maximum Humidity 100    
Minimum Humidity 29    
Precipitation  
Precipitation 0.00 in 0.10 in 1.82 in (1983)
Month to date precipitation 2.68 2.27  
Year to date precipitation 37.58 32.08  
Sea Level Pressure  
Sea Level Pressure 30.01 in    
Wind  
Wind Speed 5 mph ()    
Max Wind Speed 22 mph    
Max Gust Speed 28 mph    
Visibility 8.2 miles    
Events      
T = Trace of Precipitation, MM = Missing Value Source: Averaged Metar Reports

Daily Weather History Graph

Daily Weather History Graph

Search for Another Location

Airport or City:

Astronomy

Oct. 23, 2019 Rise Set
Actual Time 7:29 AM EDT 6:22 PM EDT
Civil Twilight 7:02 AM EDT 6:49 PM EDT
Nautical Twilight 6:31 AM EDT 7:20 PM EDT
Astronomical Twilight 6:00 AM EDT 7:51 PM EDT
Moon 1:48 AM EDT (10/23) 4:09 PM EDT (10/23)
Length of Visible Light 11h 46m
Length of Day
10h 52m
Waning Crescent, 27% of the Moon is Illuminated
Oct 23
Waning Crescent
Oct 27
New
Nov 4
First Quarter
Nov 12
Full
Nov 19
Last Quarter

Hourly Weather History & Observations

Time (EDT) Temp. Windchill Dew Point Humidity Pressure Visibility Wind Dir Wind Speed Gust Speed Precip Events Conditions
12:36 AM 46.9 °F - 46.9 °F 100% 29.87 in 0.8 mi SSW 3.5 mph - N/A   Mist
12:39 AM 46.9 °F - 46.9 °F 100% 29.87 in 1.2 mi SSW 3.5 mph - N/A   Scattered Clouds
12:45 AM 46.9 °F - 46.9 °F 100% 29.87 in 3.0 mi SSW 4.6 mph - N/A   Scattered Clouds
12:53 AM 46.9 °F - 46.9 °F 100% 29.88 in 7.0 mi SSW 4.6 mph - N/A   Partly Cloudy
1:13 AM 46.0 °F - 46.0 °F 100% 29.87 in 1.8 mi Calm Calm - N/A   Clear
1:26 AM 45.0 °F - 45.0 °F 100% 29.88 in 0.8 mi Calm Calm - N/A   Clear
1:39 AM 45.0 °F 43.5 °F 45.0 °F 100% 29.88 in 2.5 mi SSW 3.5 mph - N/A   Clear
1:46 AM 45.0 °F 43.5 °F 45.0 °F 100% 29.88 in 6.0 mi SSW 3.5 mph - N/A   Clear
1:53 AM 46.0 °F 43.9 °F 46.0 °F 100% 29.89 in 10.0 mi SSW 4.6 mph - N/A   Clear
2:53 AM 45.0 °F 42.6 °F 45.0 °F 100% 29.90 in 10.0 mi SW 4.6 mph - N/A   Clear
3:53 AM 45.0 °F - 44.1 °F 97% 29.91 in 10.0 mi Calm Calm - N/A   Partly Cloudy
4:53 AM 45.0 °F 43.5 °F 44.1 °F 97% 29.94 in 10.0 mi SSW 3.5 mph - N/A   Clear
5:53 AM 44.1 °F - 42.1 °F 93% 29.96 in 10.0 mi Calm Calm - N/A   Clear
6:53 AM 41.0 °F 39.0 °F 39.9 °F 96% 29.99 in 10.0 mi SW 3.5 mph - N/A   Clear
7:53 AM 45.0 °F 42.6 °F 42.1 °F 90% 30.01 in 10.0 mi SW 4.6 mph - N/A   Clear
8:53 AM 50.0 °F - 45.0 °F 83% 30.03 in 10.0 mi SSW 5.8 mph - N/A   Clear
9:53 AM 55.0 °F - 46.0 °F 72% 30.05 in 10.0 mi South 5.8 mph - N/A   Clear
10:53 AM 57.9 °F - 43.0 °F 58% 30.06 in 10.0 mi WSW 10.4 mph - N/A   Clear
11:53 AM 60.1 °F - 39.0 °F 46% 30.07 in 10.0 mi West 18.4 mph - N/A   Clear
12:53 PM 62.1 °F - 37.9 °F 41% 30.05 in 10.0 mi West 13.8 mph - N/A   Clear
1:53 PM 64.0 °F - 36.0 °F 35% 30.06 in 10.0 mi West 12.7 mph 23.0 mph N/A   Partly Cloudy
2:53 PM 64.0 °F - 32.0 °F 30% 30.06 in 10.0 mi West 11.5 mph 23.0 mph N/A   Clear
3:53 PM 64.0 °F - 32.0 °F 30% 30.07 in 10.0 mi West 15.0 mph - N/A   Clear
4:53 PM 63.0 °F - 30.0 °F 29% 30.09 in 10.0 mi West 16.1 mph - N/A   Clear
5:53 PM 60.1 °F - 30.9 °F 33% 30.12 in 10.0 mi West 12.7 mph - N/A   Clear
6:53 PM 52.0 °F - 33.1 °F 49% 30.15 in 10.0 mi West 8.1 mph - N/A   Clear
7:53 PM 48.9 °F - 34.0 °F 56% 30.18 in 10.0 mi West 5.8 mph - N/A   Clear
8:53 PM 46.0 °F 43.9 °F 35.1 °F 66% 30.20 in 10.0 mi South 4.6 mph - N/A   Clear
9:53 PM 43.0 °F 41.3 °F 36.0 °F 76% 30.22 in 10.0 mi SSE 3.5 mph - N/A   Clear
10:53 PM 42.1 °F 39.2 °F 34.0 °F 73% 30.23 in 10.0 mi SW 4.6 mph - N/A   Clear
11:53 PM 41.0 °F 39.0 °F 35.1 °F 79% 30.22 in 10.0 mi SSW 3.5 mph - N/A   Clear